Other Public Products
Issued by NWS Grand Forks, ND

Home | Current Version | Previous Version | Text Only | Print | Product List | Glossary Off
Versions: 1 2 3 4 5 6 7 8 9 10 11 12 13 14 15 16 17 18 19 20 21 22 23 24 25 26 27 28 29 30 31 32 33 34 35 36 37 38 39 40 41 42 43 44 45 46 47 48 49 50

000
FPUS83 KFGF 300131
OPUFGF
PRAIRIE TO PINES WEATHER ROUNDUP
NATIONAL WEATHER SERVICE EASTERN NORTH DAKOTA/GRAND FORKS ND
800 PM CDT FRI AUG 29 2014

 **SATELLITE DATA USED TO AUGMENT SKY COVER AT AUTOMATED STATIONS**
 *****  WEATHER ACROSS EASTERN NORTH DAKOTA  *****

CITY           SKY/WX    TMP DP  RH WIND       PRES   REMARKS
GRAND FORKS    CLOUDY    62  54  74 N15G24    29.85R
GRAND FORKS AF CLOUDY    61  57  87 N13       29.88R
GRAND CITY NWS   N/A     61 N/A N/A VRB5        N/A
BUXTON           N/A     63  61  93 NW14        N/A
DEVILS LAKE    PTCLDY    61  52  72 N6        29.92R
FARGO          CLOUDY    67  62  84 N18       29.80R
WAHPETON ARPT  MOCLDY    70  63  78 CALM      29.79R
$$

 *****  WEATHER ACROSS CENTRAL AND WESTERN NORTH DAKOTA  *****

CITY           SKY/WX    TMP DP  RH WIND       PRES   REMARKS
JAMESTOWN      CLOUDY    62  55  77 N13       29.89R
BISMARCK       MOCLDY    68  56  65 N7        29.94S
MINOT          CLEAR     63  51  65 NE3       29.95S
MINOT AFB      CLEAR     66  51  57 E3        29.95R
GARRISON         N/A     65  53  65 NE5       29.96R
WILLISTON      CLEAR     70  48  45 E6        29.96S
DICKINSON      CLEAR     65  53  65 NE6       29.97S
HETTINGER      CLEAR     66  53  63 NE8       29.98S
$$

 *****  OTHER OBSERVATIONS NORTHEAST NORTH DAKOTA  *****

CITY           SKY/WX    TMP DP  RH WIND       PRES   REMARKS
WALHALLA         N/A     59  59 100 N10       29.92R
LANGDON        FAIR      57  48  72 N13       29.93R
CAVALIER       MOCLDY    61  57  88 N7        29.90R
GRAFTON        MOCLDY    61  59  94 N12       29.89R
CANDO          FAIR      57  54  88 N7        29.94S
FORT TOTTEN      N/A     62  56  82 N5        29.95S
ROLLA          FAIR      55  54  94 NE5       29.96S
RUGBY          FAIR      59  54  82 N6        29.95R
 ***** THE ABOVE OBSERVATIONS ARE NON NWS ARE NOT QUALITY
        CONTROLLED AND MAY MIS-REPORT RAIN FOR SNOW...
$$

 *****  OTHER OBSERVATIONS SOUTHEAST NORTH DAKOTA *****

CITY           SKY/WX    TMP DP  RH WIND       PRES   REMARKS
COOPERSTOWN    NOT AVBL
VALLEY CITY    CLOUDY    61  61 100 N20G28    29.88R
OAKES            N/A     63  63 100 NW17G23   29.86R
GWINNER        CLOUDY    68  64  88 N18       29.85R
BUFFALO          N/A     62  57  84 CALM        N/A
WYNDMERE       NOT AVBL
 ***** THE ABOVE OBSERVATIONS ARE NON NWS ARE NOT QUALITY
       CONTROLLED AND MAY MIS-REPORT RAIN FOR SNOW...
$$

  *****  WEATHER ACROSS NORTHERN MINNESOTA  *****

CITY           SKY/WX    TMP DP  RH WIND       PRES   REMARKS
FLAG ISLAND    CLOUDY    63  57  82 N13       29.85R
WARROAD        CLOUDY    61  55  82 N8        29.86R
ROSEAU         MOCLDY    59  54  82 N12       29.85S
HALLOCK        CLOUDY    63  55  77 N13       29.87R
THF RVR FALLS  CLOUDY    61  55  82 N20G28    29.83R
HALSTAD          N/A     63  57  81 N17         N/A
FOSSTON        CLOUDY    64  63  94 CALM      29.81R
BAUDETTE       CLOUDY    61  57  87 N10       29.82R
WASKISH        CLOUDY    64  63  94 N3        29.80R
CROOKSTON      CLOUDY    63  57  82 N15       29.84R
$$
  *****  WEATHER ACROSS CENTRAL AND WEST MINNESOTA  *****

CITY           SKY/WX    TMP DP  RH WIND       PRES   REMARKS
BEMIDJI        CLOUDY    67  64  91 NW5       29.78S
PARK RAPIDS    MOCLDY    68  65  90 NW6       29.78R
WADENA         CLOUDY    66  64  94 W6        29.79R
DETROIT LAKES  PTCLDY    66  63  88 NW5       29.81R
MOORHEAD       MOCLDY    66  66 100 N14G22    29.81R
FERGUS FALLS   PTCLDY    70  64  83 CALM      29.78S
ELBOW LAKE     FAIR      67  65  93 CALM      29.79R
MORRIS MN      MOCLDY    70  66  88 N5        29.78S
STAPLES        CLOUDY    68  64  88 NW5       29.79R
WHEATON        MOCLDY    68  63  83 CALM      29.80S
$$
  *****  WEATHER ELSEWHERE ACROSS MINNESOTA  *****

CITY           SKY/WX    TMP DP  RH WIND       PRES   REMARKS
DULUTH         FOG       62  60  93 CALM      29.78S VSB 3/4
INTRNTL FALLS  CLOUDY    64  63  96 N6        29.79R
ELY            CLOUDY    61  59  94 CALM      29.80R
CLOQUET        DRIZZLE   63  61  94 CALM      29.79S
BRAINERD       CLOUDY    67  65  93 CALM      29.78S
HIBBING        CLOUDY    65  63  93 CALM      29.80R
ALEXANDRIA     CLOUDY    69  65  86 NW6       29.80R
SAINT CLOUD    CLOUDY    72  69  90 CALM      29.76R
MINNEAPOLIS    LGT RAIN  70  70 100 N5        29.75R
$$

  *****  WEATHER ACROSS SOUTH DAKOTA  *****

CITY           SKY/WX    TMP DP  RH WIND       PRES   REMARKS
SIOUX FALLS    CLOUDY    68  66  93 CALM      29.81R
BROOKINGS      NOT AVBL
WATERTOWN      CLOUDY    72  64  76 N7        29.81R
HURON          CLOUDY    74  64  71 N8        29.81R
SISSETON         N/A     73  68  84 N5        29.78R
ABERDEEN       MOCLDY    65  61  87 N21G28    29.86R
MITCHELL       LGT RAIN  68  65  90 N7        29.82S
PIERRE         PTCLDY    71  59  65 N17       29.89R
MOBRIDGE       PTCLDY    68  59  73 N14       29.90R
RAPID CITY     PTCLDY    72  54  53 NE13      29.98S
$$

  *****  SOME WEATHER IN NEARBY STATES *****

CITY           SKY/WX    TMP DP  RH WIND       PRES   REMARKS
GLASGOW MT     CLEAR     70  51  51 S10       29.91F
GREAT FALLS MT SUNNY     79  39  23 S6        29.82F
CHEYENNE WY    CLOUDY    61  50  67 S14       30.16R THUNDER
SCOTTSBLUFF NE PTCLDY    75  59  57 E6        30.01R
OMAHA NE       CLOUDY    72  68  87 S3        29.79R
DES MOINES IA  TSTM      72  68  87 S14       29.78R FOG
DAVENPORT IA   LGT RAIN  79  69  71 S10       29.80F
CHICAGO IL     MOCLDY    80  68  66 S10       29.88S
EAU CLAIRE WI  HVY RAIN  69  68  96 S7        29.78R
LA CROSSE WI   LGT RAIN  73  68  84 S13       29.80R
$$

  *****  SOME NATIONAL WEATHER *****

CITY           SKY/WX    TMP DP  RH WIND       PRES   REMARKS
LA GUARDIA NY  MOCLDY    70  54  56 SE12      30.22R
RALEIGH NC     PTCLDY    76  70  82 E3        30.15R
ATLANTA GA     PTCLDY    86  59  39 SE5       30.05R
NEW ORLEANS LA CLOUDY    79  75  87 SE8       29.94S
OKLAHOMA CITY  PTCLDY    79  65  62 S9        29.87S
ALBUQUERQUE NM PTCLDY    83  36  18 CALM      30.08F
SALT LAKE CITY PTSUNNY   85  38  18 S10       29.96F
LOS ANGELES CA MOSUNNY   73  60  63 W12       29.81F
BOISE ID       PTSUNNY   89  39  17 N8        29.80F
SEATTLE WA     PTSUNNY   70  54  56 S13       29.96F
$$

*** WEATHER ACROSS MANITOBA...SASKATCHEWAN AND ONTARIO ***
                ***ONTARIO***

CITY           SKY/WX    TMP DP  RH WIND       PRES   REMARKS
GERALDTON      MOCLDY   N/A N/A N/A CALM        N/A
THUNDER BAY    LGT RAIN  59  57  94 VRB2      29.79R FOG
SIOUX LOOKOUT  LGT RAIN  57  55  94 VRB6      29.81R
TORONTO        MOCLDY    64  57  77 SE8       30.11S
BIG TROUT LK   CLOUDY    57  54  88 N7        29.80R
PICKLE LAKE    LGT RAIN  57  55  94 NE7       29.80R FOG
DRYDEN         CLOUDY    55  54  94 NE10G17   29.82R
KENORA         MOCLDY    59  57  94 N6        29.85R
$$
                *** MANITOBA***

CITY           SKY/WX    TMP DP  RH WIND       PRES   REMARKS
BRANDON        PTCLDY    59  52  77 E10       29.95R
DAUPHIN        CLEAR     59  52  77 E5        29.95S
ISLAND LAKE    PTCLDY    55  46  71 NW6       29.90R
PILOT MOUND      N/A     57  52  82 N8          N/A
THE PAS        PTCLDY    61  43  51 NW5       29.93S
THOMPSON       MOCLDY    55  45  67 NW9       29.91R
WINNIPEG       PTCLDY    61  52  72 N7        29.92R
LYNN LAKE      CLOUDY    54  41  62 MISG      29.91S
CHURCHILL      MOCLDY    54  41  62 NW12      29.75R
GILLAM         MOCLDY    55  41  58 W14       29.87R
$$
                ***SASKATCHEWAN***

CITY           SKY/WX    TMP DP  RH WIND       PRES   REMARKS
ESTEVAN        PTCLDY    68  46  45 NE2       29.97S
KINDERSLEY     MOCLDY    70  48  46 SE12G22   29.80F
LLOYDMINSTER   PTSUNNY   64  45  48 SE14      29.79F
PRINCE ALBERT  CLOUDY    59  46  63 SE5       29.91S
REGINA         PTCLDY    66  43  42 CALM      29.94F
YORKTON        CLEAR     61  46  59 NW3       29.96S



USA.gov is the U.S. government's official web portal to all federal, state and local government web resources and services.